This is the latest recevied weather packets stored in our database for station/object ZL2IH. If no packets are shown the sender has not sent any weather packets the latest 10 day(s).
| Time | Temp. | Humidity | Pressure | Rain* | Wind** | Luminosity | Snow |
|---|---|---|---|---|---|---|---|
| 1777068618 | 12.78° C | 100% | 1026.2 hPa | 0 mm | - | - | - |
| 1777066817 | 12.22° C | 100% | 1026.6 hPa | 0 mm | - | - | - |
| 1777065617 | 12.78° C | 100% | 1026.7 hPa | 0 mm | - | - | - |
| 1777063217 | 10° C | 100% | 1026.4 hPa | 0 mm | - | - | - |
| 1777062616 | 9.44° C | 100% | 1026.2 hPa | 0 mm | - | - | - |
| 1777061417 | 8.89° C | 100% | 1026 hPa | 0 mm | - | - | - |
| 1777056019 | 6.67° C | 100% | 1025 hPa | 0 mm | - | - | - |
| 1777053619 | 6.67° C | 100% | 1025.1 hPa | 0 mm | - | - | - |
| 1777053019 | 6.67° C | 100% | 1024.9 hPa | 0 mm | - | - | - |
| 1777052418 | 6.67° C | 100% | 1024.9 hPa | 0 mm | - | - | - |
| 1777049418 | 6.67° C | 100% | 1024.8 hPa | 0 mm | - | - | - |
| 1777048258 | 6.67° C | 100% | 1024.9 hPa | 0 mm | - | - | - |
| 1777044038 | 6.67° C | 100% | 1025.3 hPa | 0 mm | - | - | - |
| 1777043418 | 6.67° C | 100% | 1025.5 hPa | 0 mm | - | - | - |
| 1777038618 | 6.11° C | 100% | 1026.4 hPa | 0 mm | - | - | - |
| 1777038018 | 6.11° C | 100% | 1026.5 hPa | 0 mm | - | - | - |
| 1777037418 | 6.11° C | 100% | 1026.7 hPa | 0 mm | - | - | - |
| 1777035618 | 6.67° C | 100% | 1026.8 hPa | 0 mm | - | - | - |
| 1777027258 | 7.22° C | 100% | 1026.6 hPa | 0 mm | - | - | - |
| 1777023018 | 7.78° C | 100% | 1026.3 hPa | 0 mm | - | - | - |
| 1777020618 | 7.78° C | 100% | 1026.3 hPa | 0 mm | - | - | - |
| 1777019418 | 7.22° C | 100% | 1026 hPa | 0 mm | - | - | - |
| 1777018818 | 7.22° C | 100% | 1025.9 hPa | 0 mm | - | - | - |
| 1777017617 | 7.22° C | 100% | 1025.6 hPa | 0 mm | - | - | - |
| 1777014617 | 8.89° C | 100% | 1025.7 hPa | 0 mm | - | - | - |
* Rain latest hour (hover to see other rain measurements)
** Current wind speed in m/s (hover to see current wind gust speed)